owner,sensor,date,latitude,longitude,vertical_datum,sea_water_temperature,qcFlag
Enven,ioos:station:wmo:42383:2,2022-04-01T00:15:00Z,27.3704,-89.9241,27.9,22.7,11111222
Enven,ioos:station:wmo:42383:2,2022-04-01T00:35:00Z,27.3704,-89.9241,27.9,22.7,11111222
Enven,ioos:station:wmo:42383:2,2022-04-01T00:55:00Z,27.3704,-89.9241,27.9,22.7,11111222
Enven,ioos:station:wmo:42383:2,2022-04-01T01:15:00Z,27.3704,-89.9241,27.9,22.7,11111222
Enven,ioos:station:wmo:42383:2,2022-04-01T01:35:00Z,27.3704,-89.9241,27.9,22.7,11111222
Enven,ioos:station:wmo:42383:2,2022-04-01T01:55:00Z,27.3704,-89.9241,27.9,22.7,11111222
Enven,ioos:station:wmo:42383:2,2022-04-01T02:15:00Z,27.3704,-89.9241,27.9,22.7,11111222
Enven,ioos:station:wmo:42383:2,2022-04-01T02:35:00Z,27.3704,-89.9241,27.9,22.7,11111222
Enven,ioos:station:wmo:42383:2,2022-04-01T02:55:00Z,27.3704,-89.9241,27.9,22.7,11111222
Enven,ioos:station:wmo:42383:2,2022-04-01T03:15:00Z,27.3704,-89.9241,27.9,22.8,11111222
Enven,ioos:station:wmo:42383:2,2022-04-01T03:35:00Z,27.3704,-89.9241,27.9,22.6,11111222
Enven,ioos:station:wmo:42383:2,2022-04-01T03:55:00Z,27.3704,-89.9241,27.9,22.6,11111222
Enven,ioos:station:wmo:42383:2,2022-04-01T04:15:00Z,27.3704,-89.9241,27.9,22.6,11111222
Enven,ioos:station:wmo:42383:2,2022-04-01T04:35:00Z,27.3704,-89.9241,27.9,22.6,11111222
Enven,ioos:station:wmo:42383:2,2022-04-01T04:55:00Z,27.3704,-89.9241,27.9,22.8,11111222
Enven,ioos:station:wmo:42383:2,2022-04-01T05:15:00Z,27.3704,-89.9241,27.9,22.7,11111222
Enven,ioos:station:wmo:42383:2,2022-04-01T05:35:00Z,27.3704,-89.9241,27.9,22.6,11111222
Enven,ioos:station:wmo:42383:2,2022-04-01T05:55:00Z,27.3704,-89.9241,27.9,22.6,11111222
Enven,ioos:station:wmo:42383:2,2022-04-01T06:15:00Z,27.3704,-89.9241,27.9,22.7,11111222
Enven,ioos:station:wmo:42383:2,2022-04-01T06:35:00Z,27.3704,-89.9241,27.9,22.6,11111222
Enven,ioos:station:wmo:42383:2,2022-04-01T06:55:00Z,27.3704,-89.9241,27.9,22.8,11111222
Enven,ioos:station:wmo:42383:2,2022-04-01T07:15:00Z,27.3704,-89.9241,27.9,22.7,11111222
Enven,ioos:station:wmo:42383:2,2022-04-01T07:35:00Z,27.3704,-89.9241,27.9,22.7,11111222
Enven,ioos:station:wmo:42383:2,2022-04-01T07:55:00Z,27.3704,-89.9241,27.9,22.5,11111222
Enven,ioos:station:wmo:42383:2,2022-04-01T08:15:00Z,27.3704,-89.9241,27.9,22.6,11111222
Enven,ioos:station:wmo:42383:2,2022-04-01T08:35:00Z,27.3704,-89.9241,27.9,22.6,11111222
Enven,ioos:station:wmo:42383:2,2022-04-01T08:55:00Z,27.3704,-89.9241,27.9,22.7,11111222
Enven,ioos:station:wmo:42383:2,2022-04-01T09:15:00Z,27.3704,-89.9241,27.9,22.6,11111222
Enven,ioos:station:wmo:42383:2,2022-04-01T09:35:00Z,27.3704,-89.9241,27.9,22.7,11111222
Enven,ioos:station:wmo:42383:2,2022-04-01T09:55:00Z,27.3704,-89.9241,27.9,22.6,11111222
Enven,ioos:station:wmo:42383:2,2022-04-01T10:15:00Z,27.3704,-89.9241,27.9,22.6,11111222
Enven,ioos:station:wmo:42383:2,2022-04-01T10:35:00Z,27.3704,-89.9241,27.9,22.5,11111222
Enven,ioos:station:wmo:42383:2,2022-04-01T10:55:00Z,27.3704,-89.9241,27.9,22.7,11111222
Enven,ioos:station:wmo:42383:2,2022-04-01T11:15:00Z,27.3704,-89.9241,27.9,22.5,11111222
Enven,ioos:station:wmo:42383:2,2022-04-01T11:35:00Z,27.3704,-89.9241,27.9,22.4,11111222
Enven,ioos:station:wmo:42383:2,2022-04-01T11:55:00Z,27.3704,-89.9241,27.9,22.5,11111222
Enven,ioos:station:wmo:42383:2,2022-04-01T12:15:00Z,27.3704,-89.9241,27.9,22.6,11111222
Enven,ioos:station:wmo:42383:2,2022-04-01T12:35:00Z,27.3704,-89.9241,27.9,22.5,11111222
Enven,ioos:station:wmo:42383:2,2022-04-01T12:55:00Z,27.3704,-89.9241,27.9,22.4,11111222
Enven,ioos:station:wmo:42383:2,2022-04-01T13:15:00Z,27.3704,-89.9241,27.9,22.5,11111222
Enven,ioos:station:wmo:42383:2,2022-04-01T13:35:00Z,27.3704,-89.9241,27.9,22.4,11111222
Enven,ioos:station:wmo:42383:2,2022-04-01T13:55:00Z,27.3704,-89.9241,27.9,22.5,11111222
Enven,ioos:station:wmo:42383:2,2022-04-01T14:15:00Z,27.3704,-89.9241,27.9,22.5,11111222
Enven,ioos:station:wmo:42383:2,2022-04-01T14:35:00Z,27.3704,-89.9241,27.9,22.4,11111222
Enven,ioos:station:wmo:42383:2,2022-04-01T14:55:00Z,27.3704,-89.9241,27.9,22.4,11111222
Enven,ioos:station:wmo:42383:2,2022-04-01T15:15:00Z,27.3704,-89.9241,27.9,22.6,11111222
Enven,ioos:station:wmo:42383:2,2022-04-01T15:35:00Z,27.3704,-89.9241,27.9,22.4,11111222
Enven,ioos:station:wmo:42383:2,2022-04-01T15:55:00Z,27.3704,-89.9241,27.9,22.5,11111222
Enven,ioos:station:wmo:42383:2,2022-04-01T16:15:00Z,27.3704,-89.9241,27.9,22.5,11111222
Enven,ioos:station:wmo:42383:2,2022-04-01T16:35:00Z,27.3704,-89.9241,27.9,22.6,11111222
Enven,ioos:station:wmo:42383:2,2022-04-01T16:55:00Z,27.3704,-89.9241,27.9,22.5,11111222
Enven,ioos:station:wmo:42383:2,2022-04-01T17:15:00Z,27.3704,-89.9241,27.9,22.5,11111222
Enven,ioos:station:wmo:42383:2,2022-04-01T17:35:00Z,27.3704,-89.9241,27.9,22.4,11111222
Enven,ioos:station:wmo:42383:2,2022-04-01T17:55:00Z,27.3704,-89.9241,27.9,22.4,11111222
Enven,ioos:station:wmo:42383:2,2022-04-01T18:15:00Z,27.3704,-89.9241,27.9,22.4,11111222
Enven,ioos:station:wmo:42383:2,2022-04-01T18:35:00Z,27.3704,-89.9241,27.9,22.4,11111222
Enven,ioos:station:wmo:42383:2,2022-04-01T18:55:00Z,27.3704,-89.9241,27.9,22.5,11111222
Enven,ioos:station:wmo:42383:2,2022-04-01T19:15:00Z,27.3704,-89.9241,27.9,22.5,11111222
Enven,ioos:station:wmo:42383:2,2022-04-01T19:35:00Z,27.3704,-89.9241,27.9,22.4,11111222
Enven,ioos:station:wmo:42383:2,2022-04-01T19:55:00Z,27.3704,-89.9241,27.9,22.5,11111222
Enven,ioos:station:wmo:42383:2,2022-04-01T20:15:00Z,27.3704,-89.9241,27.9,22.5,11111222
Enven,ioos:station:wmo:42383:2,2022-04-01T20:35:00Z,27.3704,-89.9241,27.9,22.4,11111222
Enven,ioos:station:wmo:42383:2,2022-04-01T20:55:00Z,27.3704,-89.9241,27.9,22.4,11111222
Enven,ioos:station:wmo:42383:2,2022-04-01T21:15:00Z,27.3704,-89.9241,27.9,22.5,11111222
Enven,ioos:station:wmo:42383:2,2022-04-01T21:35:00Z,27.3704,-89.9241,27.9,22.6,11111222
Enven,ioos:station:wmo:42383:2,2022-04-01T21:55:00Z,27.3704,-89.9241,27.9,22.6,11111222
Enven,ioos:station:wmo:42383:2,2022-04-01T22:15:00Z,27.3704,-89.9241,27.9,22.4,11111222
Enven,ioos:station:wmo:42383:2,2022-04-01T22:35:00Z,27.3704,-89.9241,27.9,22.5,11111222
Enven,ioos:station:wmo:42383:2,2022-04-01T22:55:00Z,27.3704,-89.9241,27.9,22.4,11111222
Enven,ioos:station:wmo:42383:2,2022-04-01T23:15:00Z,27.3704,-89.9241,27.9,22.4,11111222
Enven,ioos:station:wmo:42383:2,2022-04-01T23:35:00Z,27.3704,-89.9241,27.9,22.4,11111222
Enven,ioos:station:wmo:42383:2,2022-04-01T23:55:00Z,27.3704,-89.9241,27.9,22.6,11111222
Enven,ioos:station:wmo:42383:2,2022-04-02T00:15:00Z,27.3704,-89.9241,27.9,22.6,11111222
Enven,ioos:station:wmo:42383:2,2022-04-02T00:35:00Z,27.3704,-89.9241,27.9,22.5,11111222
Enven,ioos:station:wmo:42383:2,2022-04-02T00:55:00Z,27.3704,-89.9241,27.9,22.5,11111222
Enven,ioos:station:wmo:42383:2,2022-04-02T01:15:00Z,27.3704,-89.9241,27.9,22.5,11111222
Enven,ioos:station:wmo:42383:2,2022-04-02T01:35:00Z,27.3704,-89.9241,27.9,22.4,11111222
Enven,ioos:station:wmo:42383:2,2022-04-02T01:55:00Z,27.3704,-89.9241,27.9,22.5,11111222
Enven,ioos:station:wmo:42383:2,2022-04-02T02:15:00Z,27.3704,-89.9241,27.9,22.4,11111222
Enven,ioos:station:wmo:42383:2,2022-04-02T02:35:00Z,27.3704,-89.9241,27.9,22.3,11111222
Enven,ioos:station:wmo:42383:2,2022-04-02T02:55:00Z,27.3704,-89.9241,27.9,22.4,11111222
Enven,ioos:station:wmo:42383:2,2022-04-02T03:15:00Z,27.3704,-89.9241,27.9,22.4,11111222
Enven,ioos:station:wmo:42383:2,2022-04-02T03:35:00Z,27.3704,-89.9241,27.9,22.5,11111222
Enven,ioos:station:wmo:42383:2,2022-04-02T03:55:00Z,27.3704,-89.9241,27.9,22.4,11111222
Enven,ioos:station:wmo:42383:2,2022-04-02T04:15:00Z,27.3704,-89.9241,27.9,22.4,11111222
Enven,ioos:station:wmo:42383:2,2022-04-02T04:35:00Z,27.3704,-89.9241,27.9,22.2,11111222
Enven,ioos:station:wmo:42383:2,2022-04-02T04:55:00Z,27.3704,-89.9241,27.9,22.5,11111222
Enven,ioos:station:wmo:42383:2,2022-04-02T05:15:00Z,27.3704,-89.9241,27.9,22.5,11111222
Enven,ioos:station:wmo:42383:2,2022-04-02T05:35:00Z,27.3704,-89.9241,27.9,22.4,11111222
Enven,ioos:station:wmo:42383:2,2022-04-02T05:55:00Z,27.3704,-89.9241,27.9,22.4,11111222
Enven,ioos:station:wmo:42383:2,2022-04-02T06:15:00Z,27.3704,-89.9241,27.9,22.4,11111222
Enven,ioos:station:wmo:42383:2,2022-04-02T06:35:00Z,27.3704,-89.9241,27.9,22.4,11111222
Enven,ioos:station:wmo:42383:2,2022-04-02T06:55:00Z,27.3704,-89.9241,27.9,22.3,11111222
Enven,ioos:station:wmo:42383:2,2022-04-02T07:15:00Z,27.3704,-89.9241,27.9,22.5,11111222
Enven,ioos:station:wmo:42383:2,2022-04-02T07:35:00Z,27.3704,-89.9241,27.9,22.3,11111222
Enven,ioos:station:wmo:42383:2,2022-04-02T07:55:00Z,27.3704,-89.9241,27.9,22.3,11111222
Enven,ioos:station:wmo:42383:2,2022-04-02T08:15:00Z,27.3704,-89.9241,27.9,22.3,11111222
Enven,ioos:station:wmo:42383:2,2022-04-02T08:35:00Z,27.3704,-89.9241,27.9,22.2,11111222
Enven,ioos:station:wmo:42383:2,2022-04-02T08:55:00Z,27.3704,-89.9241,27.9,22.3,11111222
Enven,ioos:station:wmo:42383:2,2022-04-02T09:15:00Z,27.3704,-89.9241,27.9,22.1,11111222
Enven,ioos:station:wmo:42383:2,2022-04-02T09:35:00Z,27.3704,-89.9241,27.9,22.2,11111222
Enven,ioos:station:wmo:42383:2,2022-04-02T09:54:00Z,27.3704,-89.9241,27.9,22.2,11111222
Enven,ioos:station:wmo:42383:2,2022-04-02T10:14:00Z,27.3704,-89.9241,27.9,22.2,11111222
Enven,ioos:station:wmo:42383:2,2022-04-02T10:34:00Z,27.3704,-89.9241,27.9,22.3,11111222
Enven,ioos:station:wmo:42383:2,2022-04-02T10:54:00Z,27.3704,-89.9241,27.9,22.3,11111222
Enven,ioos:station:wmo:42383:2,2022-04-02T11:14:00Z,27.3704,-89.9241,27.9,22.3,11111222
Enven,ioos:station:wmo:42383:2,2022-04-02T11:34:00Z,27.3704,-89.9241,27.9,22.2,11111222
Enven,ioos:station:wmo:42383:2,2022-04-02T11:54:00Z,27.3704,-89.9241,27.9,22.2,11111222
Enven,ioos:station:wmo:42383:2,2022-04-02T12:14:00Z,27.3704,-89.9241,27.9,22.3,11111222
Enven,ioos:station:wmo:42383:2,2022-04-02T12:34:00Z,27.3704,-89.9241,27.9,22.2,11111222
Enven,ioos:station:wmo:42383:2,2022-04-02T12:54:00Z,27.3704,-89.9241,27.9,22.3,11111222
Enven,ioos:station:wmo:42383:2,2022-04-02T13:14:00Z,27.3704,-89.9241,27.9,22.4,11111222
Enven,ioos:station:wmo:42383:2,2022-04-02T13:34:00Z,27.3704,-89.9241,27.9,22.3,11111222
Enven,ioos:station:wmo:42383:2,2022-04-02T13:54:00Z,27.3704,-89.9241,27.9,22.4,11111222
Enven,ioos:station:wmo:42383:2,2022-04-02T14:14:00Z,27.3704,-89.9241,27.9,22.3,11111222
Enven,ioos:station:wmo:42383:2,2022-04-02T14:34:00Z,27.3704,-89.9241,27.9,22.3,11111222
Enven,ioos:station:wmo:42383:2,2022-04-02T14:54:00Z,27.3704,-89.9241,27.9,22.4,11111222
Enven,ioos:station:wmo:42383:2,2022-04-02T15:14:00Z,27.3704,-89.9241,27.9,22.3,11111222
Enven,ioos:station:wmo:42383:2,2022-04-02T15:34:00Z,27.3704,-89.9241,27.9,21.8,11111222
Enven,ioos:station:wmo:42383:2,2022-04-02T15:54:00Z,27.3704,-89.9241,27.9,22.4,11111222
Enven,ioos:station:wmo:42383:2,2022-04-02T16:14:00Z,27.3704,-89.9241,27.9,22.2,11111222
Enven,ioos:station:wmo:42383:2,2022-04-02T16:34:00Z,27.3704,-89.9241,27.9,22.3,11111222
Enven,ioos:station:wmo:42383:2,2022-04-02T16:54:00Z,27.3704,-89.9241,27.9,22.2,11111222
Enven,ioos:station:wmo:42383:2,2022-04-02T17:14:00Z,27.3704,-89.9241,27.9,22.3,11111222
Enven,ioos:station:wmo:42383:2,2022-04-02T17:34:00Z,27.3704,-89.9241,27.9,22.3,11111222
Enven,ioos:station:wmo:42383:2,2022-04-02T17:54:00Z,27.3704,-89.9241,27.9,22.9,11111222
Enven,ioos:station:wmo:42383:2,2022-04-02T18:14:00Z,27.3704,-89.9241,27.9,22.3,11111222
Enven,ioos:station:wmo:42383:2,2022-04-02T18:34:00Z,27.3704,-89.9241,27.9,22.2,11111222
Enven,ioos:station:wmo:42383:2,2022-04-02T18:54:00Z,27.3704,-89.9241,27.9,22.3,11111222
Enven,ioos:station:wmo:42383:2,2022-04-02T19:14:00Z,27.3704,-89.9241,27.9,22.3,11111222
Enven,ioos:station:wmo:42383:2,2022-04-02T19:34:00Z,27.3704,-89.9241,27.9,22.3,11111222
Enven,ioos:station:wmo:42383:2,2022-04-02T19:54:00Z,27.3704,-89.9241,27.9,22.3,11111222
Enven,ioos:station:wmo:42383:2,2022-04-02T20:14:00Z,27.3704,-89.9241,27.9,22.2,11111222
Enven,ioos:station:wmo:42383:2,2022-04-02T20:34:00Z,27.3704,-89.9241,27.9,22.3,11111222
Enven,ioos:station:wmo:42383:2,2022-04-02T20:54:00Z,27.3704,-89.9241,27.9,22.3,11111222
Enven,ioos:station:wmo:42383:2,2022-04-02T21:14:00Z,27.3704,-89.9241,27.9,22.2,11111222
Enven,ioos:station:wmo:42383:2,2022-04-02T21:34:00Z,27.3704,-89.9241,27.9,22.3,11111222
Enven,ioos:station:wmo:42383:2,2022-04-02T21:54:00Z,27.3704,-89.9241,27.9,22.3,11111222
Enven,ioos:station:wmo:42383:2,2022-04-02T22:14:00Z,27.3704,-89.9241,27.9,22.4,11111222
Enven,ioos:station:wmo:42383:2,2022-04-02T22:34:00Z,27.3704,-89.9241,27.9,22.3,11111222
Enven,ioos:station:wmo:42383:2,2022-04-02T22:54:00Z,27.3704,-89.9241,27.9,22.4,11111222
Enven,ioos:station:wmo:42383:2,2022-04-02T23:14:00Z,27.3704,-89.9241,27.9,22.3,11111222
Enven,ioos:station:wmo:42383:2,2022-04-02T23:34:00Z,27.3704,-89.9241,27.9,22.3,11111222
Enven,ioos:station:wmo:42383:2,2022-04-02T23:54:00Z,27.3704,-89.9241,27.9,22.3,11111222
Enven,ioos:station:wmo:42383:2,2022-04-03T00:14:00Z,27.3704,-89.9241,27.9,22.3,11111222
Enven,ioos:station:wmo:42383:2,2022-04-03T00:34:00Z,27.3704,-89.9241,27.9,22.3,11111222
Enven,ioos:station:wmo:42383:2,2022-04-03T00:54:00Z,27.3704,-89.9241,27.9,22.3,11111222
Enven,ioos:station:wmo:42383:2,2022-04-03T01:14:00Z,27.3704,-89.9241,27.9,22.3,11111222
Enven,ioos:station:wmo:42383:2,2022-04-03T01:34:00Z,27.3704,-89.9241,27.9,22.4,11111222
Enven,ioos:station:wmo:42383:2,2022-04-03T01:54:00Z,27.3704,-89.9241,27.9,22.2,11111222
Enven,ioos:station:wmo:42383:2,2022-04-03T02:14:00Z,27.3704,-89.9241,27.9,22.2,11111222
Enven,ioos:station:wmo:42383:2,2022-04-03T02:34:00Z,27.3704,-89.9241,27.9,22.1,11111222
Enven,ioos:station:wmo:42383:2,2022-04-03T02:54:00Z,27.3704,-89.9241,27.9,22.3,11111222
Enven,ioos:station:wmo:42383:2,2022-04-03T03:14:00Z,27.3704,-89.9241,27.9,22.2,11111222
Enven,ioos:station:wmo:42383:2,2022-04-03T03:34:00Z,27.3704,-89.9241,27.9,22.2,11111222
Enven,ioos:station:wmo:42383:2,2022-04-03T03:54:00Z,27.3704,-89.9241,27.9,22.2,11111222
Enven,ioos:station:wmo:42383:2,2022-04-03T04:14:00Z,27.3704,-89.9241,27.9,22.1,11111222
Enven,ioos:station:wmo:42383:2,2022-04-03T04:34:00Z,27.3704,-89.9241,27.9,22.2,11111222
Enven,ioos:station:wmo:42383:2,2022-04-03T04:54:00Z,27.3704,-89.9241,27.9,22.2,11111222
Enven,ioos:station:wmo:42383:2,2022-04-03T05:14:00Z,27.3704,-89.9241,27.9,22.3,11111222
Enven,ioos:station:wmo:42383:2,2022-04-03T05:34:00Z,27.3704,-89.9241,27.9,22.2,11111222
Enven,ioos:station:wmo:42383:2,2022-04-03T05:54:00Z,27.3704,-89.9241,27.9,22.2,11111222
Enven,ioos:station:wmo:42383:2,2022-04-03T06:14:00Z,27.3704,-89.9241,27.9,22.3,11111222
Enven,ioos:station:wmo:42383:2,2022-04-03T06:34:00Z,27.3704,-89.9241,27.9,22.3,11111222
Enven,ioos:station:wmo:42383:2,2022-04-03T06:54:00Z,27.3704,-89.9241,27.9,22.3,11111222
Enven,ioos:station:wmo:42383:2,2022-04-03T07:14:00Z,27.3704,-89.9241,27.9,22.3,11111222
Enven,ioos:station:wmo:42383:2,2022-04-03T07:34:00Z,27.3704,-89.9241,27.9,22.2,11111222
Enven,ioos:station:wmo:42383:2,2022-04-03T07:54:00Z,27.3704,-89.9241,27.9,22.3,11111222
Enven,ioos:station:wmo:42383:2,2022-04-03T08:14:00Z,27.3704,-89.9241,27.9,22.2,11111222
Enven,ioos:station:wmo:42383:2,2022-04-03T08:34:00Z,27.3704,-89.9241,27.9,22.4,11111222
Enven,ioos:station:wmo:42383:2,2022-04-03T08:54:00Z,27.3704,-89.9241,27.9,22.4,11111222
Enven,ioos:station:wmo:42383:2,2022-04-03T09:14:00Z,27.3704,-89.9241,27.9,22.3,11111222
Enven,ioos:station:wmo:42383:2,2022-04-03T09:34:00Z,27.3704,-89.9241,27.9,22.2,11111222
Enven,ioos:station:wmo:42383:2,2022-04-03T09:54:00Z,27.3704,-89.9241,27.9,22.3,11111222
Enven,ioos:station:wmo:42383:2,2022-04-03T10:14:00Z,27.3704,-89.9241,27.9,22.3,11111222
Enven,ioos:station:wmo:42383:2,2022-04-03T10:34:00Z,27.3704,-89.9241,27.9,22.2,11111222
Enven,ioos:station:wmo:42383:2,2022-04-03T10:54:00Z,27.3704,-89.9241,27.9,22.3,11111222
Enven,ioos:station:wmo:42383:2,2022-04-03T11:14:00Z,27.3704,-89.9241,27.9,22.3,11111222
Enven,ioos:station:wmo:42383:2,2022-04-03T11:34:00Z,27.3704,-89.9241,27.9,22.4,11111222
Enven,ioos:station:wmo:42383:2,2022-04-03T11:54:00Z,27.3704,-89.9241,27.9,22.3,11111222
Enven,ioos:station:wmo:42383:2,2022-04-03T12:14:00Z,27.3704,-89.9241,27.9,22.3,11111222
Enven,ioos:station:wmo:42383:2,2022-04-03T12:34:00Z,27.3704,-89.9241,27.9,22.3,11111222
Enven,ioos:station:wmo:42383:2,2022-04-03T12:54:00Z,27.3704,-89.9241,27.9,22.3,11111222
Enven,ioos:station:wmo:42383:2,2022-04-03T13:14:00Z,27.3704,-89.9241,27.9,22.4,11111222
Enven,ioos:station:wmo:42383:2,2022-04-03T13:34:00Z,27.3704,-89.9241,27.9,22.3,11111222
Enven,ioos:station:wmo:42383:2,2022-04-03T13:54:00Z,27.3704,-89.9241,27.9,22.4,11111222
Enven,ioos:station:wmo:42383:2,2022-04-03T14:14:00Z,27.3704,-89.9241,27.9,22.3,11111222
Enven,ioos:station:wmo:42383:2,2022-04-03T14:34:00Z,27.3704,-89.9241,27.9,22.4,11111222
Enven,ioos:station:wmo:42383:2,2022-04-03T14:54:00Z,27.3704,-89.9241,27.9,22.3,11111222
Enven,ioos:station:wmo:42383:2,2022-04-03T15:14:00Z,27.3704,-89.9241,27.9,22.5,11111222
Enven,ioos:station:wmo:42383:2,2022-04-03T15:34:00Z,27.3704,-89.9241,27.9,22.3,11111222
Enven,ioos:station:wmo:42383:2,2022-04-03T15:54:00Z,27.3704,-89.9241,27.9,22.3,11111222
Enven,ioos:station:wmo:42383:2,2022-04-03T16:14:00Z,27.3704,-89.9241,27.9,22.5,11111222
Enven,ioos:station:wmo:42383:2,2022-04-03T16:34:00Z,27.3704,-89.9241,27.9,22.3,11111222
Enven,ioos:station:wmo:42383:2,2022-04-03T16:54:00Z,27.3704,-89.9241,27.9,22.3,11111222
Enven,ioos:station:wmo:42383:2,2022-04-03T17:14:00Z,27.3704,-89.9241,27.9,22.4,11111222
Enven,ioos:station:wmo:42383:2,2022-04-03T17:34:00Z,27.3704,-89.9241,27.9,22.5,11111222
Enven,ioos:station:wmo:42383:2,2022-04-03T17:54:00Z,27.3704,-89.9241,27.9,22.3,11111222
Enven,ioos:station:wmo:42383:2,2022-04-03T18:14:00Z,27.3704,-89.9241,27.9,22.3,11111222
Enven,ioos:station:wmo:42383:2,2022-04-03T18:34:00Z,27.3704,-89.9241,27.9,22.4,11111222
Enven,ioos:station:wmo:42383:2,2022-04-03T18:54:00Z,27.3704,-89.9241,27.9,22.5,11111222
Enven,ioos:station:wmo:42383:2,2022-04-03T19:14:00Z,27.3704,-89.9241,27.9,22.4,11111222
Enven,ioos:station:wmo:42383:2,2022-04-03T19:34:00Z,27.3704,-89.9241,27.9,22.4,11111222
Enven,ioos:station:wmo:42383:2,2022-04-03T19:54:00Z,27.3704,-89.9241,27.9,22.4,11111222
Enven,ioos:station:wmo:42383:2,2022-04-03T20:14:00Z,27.3704,-89.9241,27.9,22.5,11111222
Enven,ioos:station:wmo:42383:2,2022-04-03T20:34:00Z,27.3704,-89.9241,27.9,22.4,11111222
Enven,ioos:station:wmo:42383:2,2022-04-03T20:54:00Z,27.3704,-89.9241,27.9,22.3,11111222
Enven,ioos:station:wmo:42383:2,2022-04-03T21:14:00Z,27.3704,-89.9241,27.9,22.5,11111222
Enven,ioos:station:wmo:42383:2,2022-04-03T21:34:00Z,27.3704,-89.9241,27.9,22.3,11111222
Enven,ioos:station:wmo:42383:2,2022-04-03T21:54:00Z,27.3704,-89.9241,27.9,22.3,11111222
Enven,ioos:station:wmo:42383:2,2022-04-03T22:14:00Z,27.3704,-89.9241,27.9,22.3,11111222
Enven,ioos:station:wmo:42383:2,2022-04-03T22:34:00Z,27.3704,-89.9241,27.9,22.5,11111222
Enven,ioos:station:wmo:42383:2,2022-04-03T22:54:00Z,27.3704,-89.9241,27.9,22.4,11111222
Enven,ioos:station:wmo:42383:2,2022-04-03T23:14:00Z,27.3704,-89.9241,27.9,22.3,11111222
Enven,ioos:station:wmo:42383:2,2022-04-03T23:34:00Z,27.3704,-89.9241,27.9,22.3,11111222
Enven,ioos:station:wmo:42383:2,2022-04-03T23:54:00Z,27.3704,-89.9241,27.9,22.4,11111222
Enven,ioos:station:wmo:42383:2,2022-04-04T00:14:00Z,27.3704,-89.9241,27.9,22.3,11111222
Enven,ioos:station:wmo:42383:2,2022-04-04T00:34:00Z,27.3704,-89.9241,27.9,22.3,11111222
Enven,ioos:station:wmo:42383:2,2022-04-04T00:54:00Z,27.3704,-89.9241,27.9,22.3,11111222
Enven,ioos:station:wmo:42383:2,2022-04-04T01:14:00Z,27.3704,-89.9241,27.9,22.3,11111222
Enven,ioos:station:wmo:42383:2,2022-04-04T01:34:00Z,27.3704,-89.9241,27.9,22.2,11111222
Enven,ioos:station:wmo:42383:2,2022-04-04T01:54:00Z,27.3704,-89.9241,27.9,22.3,11111222
Enven,ioos:station:wmo:42383:2,2022-04-04T02:14:00Z,27.3704,-89.9241,27.9,22.2,11111222
Enven,ioos:station:wmo:42383:2,2022-04-04T02:34:00Z,27.3704,-89.9241,27.9,22.1,11111222
Enven,ioos:station:wmo:42383:2,2022-04-04T02:54:00Z,27.3704,-89.9241,27.9,22.3,11111222
Enven,ioos:station:wmo:42383:2,2022-04-04T03:14:00Z,27.3704,-89.9241,27.9,22.3,11111222
Enven,ioos:station:wmo:42383:2,2022-04-04T03:34:00Z,27.3704,-89.9241,27.9,22.3,11111222
Enven,ioos:station:wmo:42383:2,2022-04-04T03:54:00Z,27.3704,-89.9241,27.9,22.4,11111222
Enven,ioos:station:wmo:42383:2,2022-04-04T04:14:00Z,27.3704,-89.9241,27.9,22.3,11111222
Enven,ioos:station:wmo:42383:2,2022-04-04T04:34:00Z,27.3704,-89.9241,27.9,22.2,11111222
Enven,ioos:station:wmo:42383:2,2022-04-04T04:54:00Z,27.3704,-89.9241,27.9,22.3,11111222
Enven,ioos:station:wmo:42383:2,2022-04-04T05:14:00Z,27.3704,-89.9241,27.9,22.2,11111222
Enven,ioos:station:wmo:42383:2,2022-04-04T05:34:00Z,27.3704,-89.9241,27.9,22.4,11111222
Enven,ioos:station:wmo:42383:2,2022-04-04T05:54:00Z,27.3704,-89.9241,27.9,22.2,11111222
Enven,ioos:station:wmo:42383:2,2022-04-04T06:14:00Z,27.3704,-89.9241,27.9,22.2,11111222
Enven,ioos:station:wmo:42383:2,2022-04-04T06:34:00Z,27.3704,-89.9241,27.9,22.2,11111222
Enven,ioos:station:wmo:42383:2,2022-04-04T06:54:00Z,27.3704,-89.9241,27.9,22.2,11111222
Enven,ioos:station:wmo:42383:2,2022-04-04T07:14:00Z,27.3704,-89.9241,27.9,22.1,11111222
Enven,ioos:station:wmo:42383:2,2022-04-04T07:34:00Z,27.3704,-89.9241,27.9,22.2,11111222
Enven,ioos:station:wmo:42383:2,2022-04-04T07:54:00Z,27.3704,-89.9241,27.9,22.3,11111222
Enven,ioos:station:wmo:42383:2,2022-04-04T08:14:00Z,27.3704,-89.9241,27.9,22.3,11111222
Enven,ioos:station:wmo:42383:2,2022-04-04T08:34:00Z,27.3704,-89.9241,27.9,22.3,11111222
Enven,ioos:station:wmo:42383:2,2022-04-04T08:54:00Z,27.3704,-89.9241,27.9,22.3,11111222
Enven,ioos:station:wmo:42383:2,2022-04-04T09:14:00Z,27.3704,-89.9241,27.9,22.4,11111222
Enven,ioos:station:wmo:42383:2,2022-04-04T09:34:00Z,27.3704,-89.9241,27.9,22.5,11111222
Enven,ioos:station:wmo:42383:2,2022-04-04T09:54:00Z,27.3704,-89.9241,27.9,22.5,11111222
Enven,ioos:station:wmo:42383:2,2022-04-04T10:14:00Z,27.3704,-89.9241,27.9,22.5,11111222
Enven,ioos:station:wmo:42383:2,2022-04-04T10:34:00Z,27.3704,-89.9241,27.9,22.6,11111222
Enven,ioos:station:wmo:42383:2,2022-04-04T10:54:00Z,27.3704,-89.9241,27.9,22.5,11111222
Enven,ioos:station:wmo:42383:2,2022-04-04T11:14:00Z,27.3704,-89.9241,27.9,22.4,11111222
Enven,ioos:station:wmo:42383:2,2022-04-04T11:34:00Z,27.3704,-89.9241,27.9,22.4,11111222
Enven,ioos:station:wmo:42383:2,2022-04-04T11:54:00Z,27.3704,-89.9241,27.9,22.4,11111222
Enven,ioos:station:wmo:42383:2,2022-04-04T12:14:00Z,27.3704,-89.9241,27.9,22.3,11111222
Enven,ioos:station:wmo:42383:2,2022-04-04T12:34:00Z,27.3704,-89.9241,27.9,22.4,11111222
Enven,ioos:station:wmo:42383:2,2022-04-04T12:54:00Z,27.3704,-89.9241,27.9,22.5,11111222
Enven,ioos:station:wmo:42383:2,2022-04-04T13:14:00Z,27.3704,-89.9241,27.9,22.2,11111222
Enven,ioos:station:wmo:42383:2,2022-04-04T13:34:00Z,27.3704,-89.9241,27.9,22.4,11111222
Enven,ioos:station:wmo:42383:2,2022-04-04T13:54:00Z,27.3704,-89.9241,27.9,22.4,11111222
Enven,ioos:station:wmo:42383:2,2022-04-04T14:14:00Z,27.3704,-89.9241,27.9,22.2,11111222
Enven,ioos:station:wmo:42383:2,2022-04-04T14:34:00Z,27.3704,-89.9241,27.9,22.4,11111222
Enven,ioos:station:wmo:42383:2,2022-04-04T14:54:00Z,27.3704,-89.9241,27.9,22.3,11111222
Enven,ioos:station:wmo:42383:2,2022-04-04T15:14:00Z,27.3704,-89.9241,27.9,22.2,11111222
Enven,ioos:station:wmo:42383:2,2022-04-04T15:34:00Z,27.3704,-89.9241,27.9,22.3,11111222
Enven,ioos:station:wmo:42383:2,2022-04-04T15:54:00Z,27.3704,-89.9241,27.9,22.4,11111222
Enven,ioos:station:wmo:42383:2,2022-04-04T16:14:00Z,27.3704,-89.9241,27.9,21.7,11111222
Enven,ioos:station:wmo:42383:2,2022-04-04T16:34:00Z,27.3704,-89.9241,27.9,22.3,11111222
Enven,ioos:station:wmo:42383:2,2022-04-04T16:54:00Z,27.3704,-89.9241,27.9,22.2,11111222
Enven,ioos:station:wmo:42383:2,2022-04-04T17:14:00Z,27.3704,-89.9241,27.9,22.2,11111222